Location: Helion Bumpstead
(52.0500°N, 0.4000°E)
Time: 22:09:49
(UTC+00:00)

SL-08 R/B - Pass Details

Date: 15 November 2025
Orbit: 942 x 1007 km, 82.9° (Epoch: 06 December)

Event Time Altitude Azimuth Distance (km) Brightness Sun altitude
Rises 04:41:48 0° 347° (NNW) 3,632 7.4 -23.9°
Reaches altitude 10° 04:44:19 10° 344° (NNW) 2,688 6.6 -23.5°
Maximum altitude 04:50:18 57° 267° (W) 1,119 4.4 -22.6°
Drops below altitude 10° 04:56:21 10° 190° (S) 2,709 6.7 -21.6°
Sets 04:58:54 0° 187° (S) 3,662 7.5 -21.2°
